Location: Shannon
(40.5500°S, 175.4167°E)
Time: 21:18:58
(UTC+00:00)

Cosmos 1605 Rocket - Pass Details

Date: 17 November 2025
Orbit: 943 x 1005 km, 82.9° (Epoch: 06 December)

Event Time Altitude Azimuth Distance (km) Brightness Sun altitude
Exits shadow 15:32:22 - 358° (N) 3,351 6.4 -13.1°
Reaches altitude 10° 15:34:00 10° 358° (N) 2,740 6.0 -12.8°
Maximum altitude 15:40:18 83° 84° (E) 1,017 4.2 -11.9°
Drops below altitude 10° 15:46:47 10° 171° (S) 2,807 7.1 -10.9°
Sets 15:49:21 0° 171° (S) 3,767 7.8 -10.5°
